When you browse on this site, cookies collect data to enhance your experience and personalize the content and advertising you see.
Visit our Privacy Policy to learn more. By continuing to use the site, you agree to this use of cookies and data.
  • în România
  • Lista ţărilor
  • Pe 7 zile
  • Temperatura apei
  • Hartă satelitară
  • Meteo pe hartă
  • Widget-uri
  • user-avatar
    Intrare

    Meteo pe oră la Dubovka

    Astăzi, 18 Februarie, Luni

    Timp Temperatura Precipitaţii Vânt Presiune Umiditate
    00:00 -6°C° 0 mm 8 m/s 730 mmHg 82%
    01:00 -6°C° 0 mm 8 m/s 731 mmHg 82%
    02:00 -7°C° 0 mm 8 m/s 732 mmHg 82%
    03:00 -7°C° 0 mm 5 m/s 732 mmHg 86%
    04:00 -8°C° 0 mm 6 m/s 732 mmHg 85%
    05:00 -8°C° 0 mm 7 m/s 733 mmHg 83%
    06:00 -8°C° 0 mm 8 m/s 734 mmHg 82%
    07:00 -8°C° 0 mm 8 m/s 735 mmHg 82%
    08:00 -10°C° 0 mm 8 m/s 735 mmHg 82%
    09:00 -10°C° 0 mm 8 m/s 736 mmHg 82%
    10:00 -10°C° 0 mm 8 m/s 737 mmHg 81%
    11:00 -8°C° 0 mm 8 m/s 738 mmHg 80%
    12:00 -8°C° 0 mm 8 m/s 738 mmHg 79%
    13:00 -8°C° 0 mm 8 m/s 739 mmHg 79%
    14:00 -8°C° 0 mm 7 m/s 739 mmHg 79%
    15:00 -8°C° 0 mm 7 m/s 740 mmHg 79%
    16:00 -8°C° 0 mm 6 m/s 741 mmHg 81%
    17:00 -9°C° 0 mm 6 m/s 741 mmHg 82%
    18:00 -8°C° 0 mm 5 m/s 742 mmHg 84%
    19:00 -10°C° 0 mm 5 m/s 742 mmHg 85%
    20:00 -9°C° 0 mm 4 m/s 743 mmHg 86%
    21:00 -10°C° 0 mm 4 m/s 743 mmHg 88%
    22:00 -10°C° 0 mm 3 m/s 744 mmHg 89%
    23:00 -13°C° 0 mm 3 m/s 744 mmHg 91%

    Mâine, 19 Februarie, Marţi

    Timp Temperatura Precipitaţii Vânt Presiune Umiditate
    00:00 -14°C° 0 mm 3 m/s 744 mmHg 92%
    01:00 -13°C° 0 mm 2 m/s 744 mmHg 92%
    02:00 -14°C° 0 mm 2 m/s 745 mmHg 92%
    03:00 -14°C° 0 mm 2 m/s 745 mmHg 92%
    04:00 -15°C° 0 mm 2 m/s 745 mmHg 92%
    05:00 -15°C° 0 mm 2 m/s 745 mmHg 92%
    06:00 -15°C° 0 mm 2 m/s 745 mmHg 91%
    07:00 -14°C° 0 mm 2 m/s 745 mmHg 91%
    08:00 -15°C° 0 mm 3 m/s 745 mmHg 90%
    09:00 -15°C° 0 mm 3 m/s 745 mmHg 90%
    10:00 -14°C° 0 mm 4 m/s 744 mmHg 88%
    11:00 -12°C° 0 mm 5 m/s 744 mmHg 86%
    12:00 -10°C° 0 mm 5 m/s 743 mmHg 84%
    13:00 -10°C° 0 mm 6 m/s 743 mmHg 83%
    14:00 -9°C° 0 mm 6 m/s 743 mmHg 83%
    15:00 -8°C° 0 mm 6 m/s 742 mmHg 82%
    16:00 -8°C° 0 mm 6 m/s 742 mmHg 83%
    17:00 -8°C° 0 mm 6 m/s 741 mmHg 84%
    18:00 -9°C° 0 mm 6 m/s 741 mmHg 85%
    19:00 -9°C° 0 mm 6 m/s 740 mmHg 85%
    20:00 -9°C° 0 mm 6 m/s 740 mmHg 86%
    21:00 -9°C° 0 mm 6 m/s 740 mmHg 86%
    22:00 -10°C° 0 mm 6 m/s 739 mmHg 86%
    23:00 -10°C° 0 mm 6 m/s 739 mmHg 85%

    Poimâine, 20 Februarie, Miercuri

    Timp Temperatura Precipitaţii Vânt Presiune Umiditate
    00:00 -10°C° 0 mm 6 m/s 738 mmHg 85%
    01:00 -10°C° 0 mm 6 m/s 738 mmHg 85%
    02:00 -12°C° 0 mm 7 m/s 737 mmHg 85%
    03:00 -12°C° 0 mm 7 m/s 737 mmHg 85%
    04:00 -11°C° 0 mm 7 m/s 736 mmHg 87%
    05:00 -11°C° 0 mm 7 m/s 736 mmHg 88%
    06:00 -11°C° 0 mm 7 m/s 735 mmHg 90%
    07:00 -9°C° 0 mm 7 m/s 735 mmHg 90%
    08:00 -8°C° 0 mm 7 m/s 734 mmHg 90%
    09:00 -7°C° 0 mm 7 m/s 734 mmHg 91%
    10:00 -6°C° 0 mm 7 m/s 734 mmHg 91%
    11:00 -6°C° 0 mm 7 m/s 734 mmHg 91%
    12:00 -4°C° 0 mm 7 m/s 733 mmHg 90%
    13:00 -4°C° 0 mm 7 m/s 733 mmHg 90%
    14:00 -3°C° 0 mm 7 m/s 733 mmHg 90%
    15:00 -3°C° 0 mm 7 m/s 733 mmHg 90%
    16:00 -3°C° 0.1 mm 6 m/s 732 mmHg 90%
    17:00 -3°C° 0.1 mm 6 m/s 732 mmHg 91%
    18:00 -2°C° 0.1 mm 6 m/s 732 mmHg 91%
    19:00 -2°C° 0 mm 6 m/s 732 mmHg 91%
    20:00 -2°C° 0 mm 6 m/s 732 mmHg 91%
    21:00 -2°C° 0 mm 6 m/s 732 mmHg 91%
    22:00 -3°C° 0 mm 6 m/s 732 mmHg 91%
    23:00 -3°C° 0 mm 6 m/s 731 mmHg 91%

    21 Februarie, Joi

    Timp Temperatura Precipitaţii Vânt Presiune Umiditate
    00:00 -3°C° 0 mm 6 m/s 731 mmHg 91%
    01:00 -3°C° 0.1 mm 6 m/s 731 mmHg 91%
    02:00 -3°C° 0.1 mm 6 m/s 730 mmHg 92%
    03:00 -3°C° 0.1 mm 7 m/s 730 mmHg 92%
    04:00 -3°C° 0.1 mm 7 m/s 729 mmHg 92%
    05:00 -3°C° 0.1 mm 7 m/s 729 mmHg 91%
    06:00 -3°C° 0.1 mm 7 m/s 728 mmHg 90%
    07:00 -4°C° 0.2 mm 7 m/s 728 mmHg 88%
    08:00 -6°C° 0.2 mm 7 m/s 728 mmHg 85%
    09:00 -7°C° 0.2 mm 7 m/s 728 mmHg 83%
    10:00 -7°C° 0 mm 7 m/s 728 mmHg 82%
    11:00 -7°C° 0 mm 7 m/s 729 mmHg 82%
    12:00 -7°C° 0 mm 7 m/s 729 mmHg 82%
    13:00 -7°C° 0.1 mm 7 m/s 729 mmHg 81%
    14:00 -7°C° 0.1 mm 7 m/s 729 mmHg 79%
    15:00 -8°C° 0.1 mm 8 m/s 730 mmHg 78%
    16:00 -9°C° 0 mm 7 m/s 730 mmHg 80%
    17:00 -10°C° 0 mm 6 m/s 730 mmHg 82%
    18:00 -11°C° 0 mm 5 m/s 730 mmHg 83%
    19:00 -11°C° 0.1 mm 6 m/s 731 mmHg 84%
    20:00 -11°C° 0.1 mm 7 m/s 731 mmHg 85%
    21:00 -10°C° 0.1 mm 8 m/s 731 mmHg 85%
    22:00 -10°C° 0 mm 8 m/s 732 mmHg 85%
    23:00 -11°C° 0 mm 8 m/s 732 mmHg 85%

    22 Februarie, Vineri

    Timp Temperatura Precipitaţii Vânt Presiune Umiditate
    00:00 -11°C° 0 mm 9 m/s 733 mmHg 85%
    01:00 -11°C° 0 mm 8 m/s 734 mmHg 84%
    02:00 -12°C° 0 mm 8 m/s 734 mmHg 84%
    03:00 -12°C° 0 mm 8 m/s 735 mmHg 84%
    04:00 -13°C° 0 mm 7 m/s 736 mmHg 84%
    05:00 -14°C° 0 mm 7 m/s 737 mmHg 85%
    06:00 -14°C° 0 mm 7 m/s 737 mmHg 85%
    07:00 -15°C° 0 mm 7 m/s 738 mmHg 84%
    08:00 -17°C° 0 mm 8 m/s 739 mmHg 84%
    09:00 -18°C° 0 mm 8 m/s 740 mmHg 83%
    10:00 -18°C° 0 mm 8 m/s 741 mmHg 82%
    11:00 -17°C° 0 mm 8 m/s 741 mmHg 82%
    12:00 -17°C° 0 mm 8 m/s 742 mmHg 81%
    13:00 -17°C° 0 mm 8 m/s 743 mmHg 80%
    14:00 -16°C° 0 mm 8 m/s 743 mmHg 78%
    15:00 -16°C° 0 mm 8 m/s 744 mmHg 76%
    16:00 -15°C° 0 mm 7 m/s 744 mmHg 78%
    17:00 -17°C° 0 mm 7 m/s 745 mmHg 79%
    18:00 -16°C° 0 mm 6 m/s 746 mmHg 81%
    19:00 -16°C° 0 mm 6 m/s 747 mmHg 81%
    20:00 -17°C° 0 mm 6 m/s 747 mmHg 82%
    21:00 -17°C° 0 mm 6 m/s 748 mmHg 83%
    22:00 -17°C° 0 mm 5 m/s 748 mmHg 85%
    23:00 -18°C° 0 mm 5 m/s 748 mmHg 86%

    23 Februarie, Sâmbătă

    Timp Temperatura Precipitaţii Vânt Presiune Umiditate
    00:00 -18°C° 0 mm 5 m/s 749 mmHg 88%
    01:00 -18°C° 0 mm 5 m/s 749 mmHg 89%
    02:00 -17°C° 0 mm 4 m/s 749 mmHg 90%
    03:00 -18°C° 0 mm 4 m/s 749 mmHg 91%
    04:00 -18°C° 0 mm 4 m/s 749 mmHg 92%
    05:00 -19°C° 0 mm 4 m/s 749 mmHg 93%
    06:00 -19°C° 0 mm 4 m/s 749 mmHg 94%
    07:00 -18°C° 0 mm 3 m/s 749 mmHg 94%
    08:00 -18°C° 0 mm 3 m/s 749 mmHg 94%
    09:00 -18°C° 0 mm 3 m/s 749 mmHg 94%
    10:00 -16°C° 0 mm 3 m/s 749 mmHg 93%
    11:00 -14°C° 0 mm 2 m/s 748 mmHg 92%
    12:00 -12°C° 0 mm 2 m/s 748 mmHg 91%
    13:00 -12°C° 0 mm 3 m/s 747 mmHg 91%
    14:00 -12°C° 0 mm 3 m/s 746 mmHg 91%
    15:00 -10°C° 0 mm 3 m/s 745 mmHg 91%
    16:00 -10°C° 0 mm 3 m/s 745 mmHg 92%
    17:00 -9°C° 0 mm 2 m/s 745 mmHg 93%
    18:00 -10°C° 0 mm 2 m/s 744 mmHg 94%
    19:00 -10°C° 0.1 mm 2 m/s 744 mmHg 95%
    20:00 -10°C° 0.1 mm 2 m/s 743 mmHg 95%
    21:00 -10°C° 0.1 mm 2 m/s 743 mmHg 96%
    22:00 -10°C° 0 mm 2 m/s 743 mmHg 96%
    23:00 -10°C° 0 mm 2 m/s 743 mmHg 97%
    Arată mai mult